Starlink 30405

operational
NORAD ID: 57851 Int'l Des: 2023-141 Owner: SPXS Country: US Constellation: starlink
LEOCIRCULAR

Starlink 30405について

説明を読み込み中...

リアルタイム位置

3D地球を読み込み中...

次回通過

高度履歴

Altitude vs Time

uPlot chart will show altitude changes over time

軌道要素

1 57851U 23141M 25257.58436621 .00000061 00000-0 14196-4 0 9995
2 57851 53.1618 22.1946 0000976 88.6475 271.4638 15.30187999113363
Epoch: Sep 14, 2025 • Age: 21 hours

現在のステータス

高度 477.7 km
速度 7.63 km/s
衛星直下点 37.08°N, 101.39°W
打ち上げ日 Sep 12, 2023
運用期間 2 years
タイプ internet

技術仕様

分類 Payload
質量 730.00 kg
乾燥質量 700.00 kg
総質量 730.00 kg
長さ 0.30 m
直径 4.10 m
スパン 29.00 m
形状 Box + pan
製造者 SPXS
バスタイプ Starlink V2M
フェーズステータス In Orbit
所有者/国 SPXS/US

大規模コンステレーション

Loading constellations...